Helena, MT

11:06 PM MST on February 24, 2018 (GMT -0700)
Helena Regional

Weather History for KHLN - February, 2013

Change the Weather History Date:

Wednesday, February 6, 2013

  Actual Average Record
Temperature  
Mean Temperature 37 °F 26 °F  
Max Temperature 45 °F 37 °F 67 °F (2015)
Min Temperature 29 °F 16 °F -27 °F (1936)
Degree Days  
Heating Degree Days 28 39  
Month to date heating degree days 165 236  
Since 1 July heating degree days 4374 4754  
Cooling Degree Days 0 0  
Month to date cooling degree days 0 0  
Year to date cooling degree days 0 0  
Moisture  
Dew Point 21 °F    
Average Humidity 52    
Maximum Humidity 64    
Minimum Humidity 40    
Precipitation  
Precipitation T in 0.01 in 0.41 in (1895)
Month to date precipitation T 0.06  
Year to date precipitation 0.35 0.42  
Snow  
Snow T in 0.20 in 7.00 in (1933)
Month to date snowfall T 1.2  
Since 1 July snowfall 29.4 23.5  
Snow Depth 0.00 in    
Sea Level Pressure  
Sea Level Pressure 30.03 in    
Wind  
Wind Speed 8 mph (WSW)    
Max Wind Speed 22 mph    
Max Gust Speed 31 mph    
Visibility 9 miles    
Events Snow    
T = Trace of Precipitation, MM = Missing Value Source: NWS Daily Summary

Daily Weather History Graph

Daily Weather History Graph

Search for Another Location

Airport or City:

Trip Planner

Search our weather history database for the weather conditions in past years. The results will help you decide how hot, cold, wet, or windy it might be!

Date:

Astronomy

Feb. 06, 2013 Rise Set
Actual Time 7:44 AM MST 5:39 PM MST
Civil Twilight 7:12 AM MST 6:11 PM MST
Nautical Twilight 6:37 AM MST 6:47 PM MST
Astronomical Twilight 6:01 AM MST 7:22 PM MST
Moon 4:39 AM MST (2/6) 1:55 PM MST (2/6)
Length of Visible Light 10h 58m
Length of Day
9h 55m
Waning Crescent, 16% of the Moon is Illuminated
Feb 6
Waning Crescent
Feb 10
New
Feb 17
First Quarter
Feb 25
Full
Mar 4
Last Quarter

Hourly Weather History & Observations

Time (MST) Temp. Windchill Dew Point Humidity Pressure Visibility Wind Dir Wind Speed Gust Speed Precip Events Conditions
12:53 AM 37.0 °F 31.0 °F 25.0 °F 62% 29.90 in 10.0 mi WSW 8.1 mph - N/A   Partly Cloudy
1:53 AM 37.0 °F 28.1 °F 21.0 °F 52% 29.90 in 10.0 mi WSW 15.0 mph 24.2 mph N/A   Mostly Cloudy
2:53 AM 36.0 °F - 18.0 °F 48% 29.94 in 10.0 mi Calm Calm - N/A   Partly Cloudy
3:53 AM 36.0 °F - 17.1 °F 46% 29.94 in 10.0 mi Calm Calm - N/A   Scattered Clouds
4:53 AM 34.0 °F 29.8 °F 18.0 °F 52% 29.96 in 10.0 mi West 4.6 mph - N/A   Partly Cloudy
5:53 AM 33.1 °F 30.0 °F 19.9 °F 59% 29.98 in 10.0 mi SE 3.5 mph - N/A   Partly Cloudy
6:53 AM 33.1 °F 30.0 °F 21.0 °F 61% 30.01 in 10.0 mi West 3.5 mph - N/A   Overcast
7:53 AM 35.1 °F 32.2 °F 19.9 °F 54% 30.02 in 10.0 mi SW 3.5 mph - N/A   Mostly Cloudy
8:53 AM 35.1 °F 29.3 °F 21.0 °F 57% 30.04 in 10.0 mi SW 6.9 mph - N/A   Mostly Cloudy
9:51 AM 35.6 °F 27.1 °F 26.6 °F 70% 29.95 in 2.5 mi West 12.7 mph - 0.00 in Snow Light Snow
9:53 AM 35.1 °F 26.4 °F 26.1 °F 70% 30.07 in 2.0 mi West 12.7 mph - 0.00 in Snow Light Snow
9:56 AM 33.8 °F 24.8 °F 26.6 °F 75% 29.95 in 3.0 mi WSW 12.7 mph - N/A Snow Light Snow
10:05 AM 33.8 °F 27.0 °F 28.4 °F 81% 29.94 in 1.8 mi SW 8.1 mph - 0.00 in Snow Light Snow
10:08 AM 35.6 °F 29.2 °F 28.4 °F 75% 29.95 in 3.0 mi SW 8.1 mph - 0.00 in Snow Light Snow
10:18 AM 35.6 °F 27.5 °F 26.6 °F 70% 29.95 in 9.0 mi WSW 11.5 mph - 0.00 in   Mostly Cloudy
10:53 AM 39.9 °F 32.9 °F 23.0 °F 51% 30.06 in 10.0 mi West 11.5 mph - 0.00 in   Scattered Clouds
11:53 AM 39.9 °F 32.9 °F 21.0 °F 47% 30.04 in 10.0 mi WSW 11.5 mph - N/A   Mostly Cloudy
12:53 PM 39.0 °F 32.8 °F 21.0 °F 49% 30.04 in 10.0 mi West 9.2 mph - N/A   Clear
1:53 PM 44.1 °F 37.1 °F 21.0 °F 40% 30.01 in 10.0 mi WNW 15.0 mph 23.0 mph N/A   Mostly Cloudy
2:53 PM 39.9 °F 31.1 °F 21.0 °F 47% 30.06 in 10.0 mi West 17.3 mph 20.7 mph N/A   Scattered Clouds
3:53 PM 41.0 °F 32.8 °F 19.9 °F 43% 30.07 in 10.0 mi WSW 16.1 mph - N/A   Clear
4:53 PM 39.9 °F 31.1 °F 21.0 °F 47% 30.08 in 10.0 mi WSW 17.3 mph - N/A   Overcast
5:53 PM 37.0 °F 29.8 °F 19.9 °F 50% 30.12 in 10.0 mi West 10.4 mph - N/A   Partly Cloudy
6:53 PM 36.0 °F 31.1 °F 19.9 °F 52% 30.14 in 10.0 mi WSW 5.8 mph - N/A   Mostly Cloudy
7:53 PM 36.0 °F 30.3 °F 19.0 °F 50% 30.14 in 10.0 mi WSW 6.9 mph - N/A   Mostly Cloudy
8:53 PM 35.1 °F 28.6 °F 18.0 °F 50% 30.16 in 10.0 mi WSW 8.1 mph - N/A   Partly Cloudy
9:53 PM 35.1 °F 32.2 °F 17.1 °F 48% 30.17 in 10.0 mi WSW 3.5 mph - N/A   Clear
10:53 PM 33.1 °F - 18.0 °F 54% 30.15 in 10.0 mi Calm Calm - N/A   Clear
11:53 PM 32.0 °F - 18.0 °F 56% 30.15 in 10.0 mi Calm Calm - N/A   Clear